Weather History for Corinth, MS

Change the Weather History Date:

Thursday, July 4, 2013

  Actual Average Record
Temperature  
Mean Temperature 74 °F -  
Max Temperature 80 °F 92 °F 99 °F (1930)
Min Temperature 68 °F 69 °F 55 °F (1961)
Cooling Degree Days 9    
Growing Degree Days 24 (Base 50)    
Moisture  
Dew Point 67 °F    
Average Humidity 84    
Maximum Humidity 94    
Minimum Humidity 65    
Precipitation  
Precipitation 0.10 in - - ()
Sea Level Pressure  
Sea Level Pressure 30.03 in    
Wind  
Wind Speed 3 mph (NE)    
Max Wind Speed 14 mph    
Max Gust Speed 21 mph    
Visibility 9 miles    
Events Rain    
Averages and records for this station are not official NWS values.
T = Trace of Precipitation, MM = Missing Value Source: NWS Daily Summary

Daily Weather History Graph

Daily Weather History Graph

Search for Another Location

Airport:

Trip Planner

Search our weather history database for the weather conditions in past years. The results will help you decide how hot, cold, wet, or windy it might be!

Date:

Astronomy

Jul. 04, 2013 Rise Set
Actual Time 5:45 AM CDT 8:11 PM CDT
Civil Twilight 5:16 AM CDT 8:41 PM CDT
Nautical Twilight 4:40 AM CDT 9:17 PM CDT
Astronomical Twilight 4:00 AM CDT 9:57 PM CDT
Moon 2:59 AM CDT (7/4) 5:18 PM CDT (7/4)
Length of Visible Light 15h 24m
Length of Day
14h 25m
Waning Crescent, 11% of the Moon is Illuminated
Jul 4
Waning Crescent
Jul 8
New
Jul 15
First Quarter
Jul 22
Full
Jul 29
Last Quarter

Hourly Weather History & Observations

Time (CDT) Temp. Heat Index Dew Point Humidity Pressure Visibility Wind Dir Wind Speed Gust Speed Precip Events Conditions
12:10 AM 68.0 °F - 64.4 °F 88% 30.06 in 10.0 mi ESE 3.5 mph - N/A   Mostly Cloudy
12:30 AM 68.0 °F - 64.4 °F 88% 30.06 in 10.0 mi ESE 3.5 mph - N/A   Mostly Cloudy
12:50 AM 69.8 °F - 64.4 °F 83% 30.06 in 10.0 mi ESE 3.5 mph - N/A   Overcast
1:10 AM 69.8 °F - 66.2 °F 88% 30.06 in 10.0 mi SE 4.6 mph - N/A   Overcast
1:30 AM 69.8 °F - 66.2 °F 88% 30.05 in 10.0 mi Calm Calm - N/A   Overcast
1:50 AM 69.8 °F - 66.2 °F 88% 30.05 in 10.0 mi Calm Calm - N/A   Overcast
2:10 AM 68.0 °F - 66.2 °F 94% 30.04 in 10.0 mi Calm Calm - N/A   Overcast
2:30 AM 68.0 °F - 66.2 °F 94% 30.04 in 10.0 mi Calm Calm - N/A   Overcast
2:50 AM 68.0 °F - 66.2 °F 94% 30.04 in 10.0 mi Calm Calm - N/A   Overcast
3:10 AM 68.0 °F - 66.2 °F 94% 30.04 in 10.0 mi Calm Calm - N/A   Overcast
3:30 AM 68.0 °F - 66.2 °F 94% 30.03 in 10.0 mi Calm Calm - N/A   Overcast
3:50 AM 68.0 °F - 66.2 °F 94% 30.03 in 10.0 mi Calm Calm - N/A   Overcast
4:10 AM 68.0 °F - 66.2 °F 94% 30.03 in 10.0 mi Calm Calm - N/A   Overcast
4:30 AM 69.8 °F - 66.2 °F 88% 30.03 in 10.0 mi Calm Calm - N/A   Overcast
4:50 AM 68.0 °F - 66.2 °F 94% 30.03 in 7.0 mi Calm Calm - N/A   Overcast
5:10 AM 68.0 °F - 66.2 °F 94% 30.03 in 10.0 mi Calm Calm - N/A   Overcast
5:30 AM 68.0 °F - 66.2 °F 94% 30.03 in 6.0 mi Calm Calm - N/A   Overcast
5:50 AM 68.0 °F - 66.2 °F 94% 30.04 in 6.0 mi Calm Calm - N/A   Overcast
6:10 AM 68.0 °F - 66.2 °F 94% 30.04 in 7.0 mi Calm Calm - N/A   Mostly Cloudy
6:30 AM 68.0 °F - 66.2 °F 94% 30.04 in 9.0 mi Calm Calm - N/A   Overcast
6:50 AM 69.8 °F - 66.2 °F 88% 30.04 in 10.0 mi Calm Calm - N/A   Overcast
7:10 AM 71.6 °F - 68.0 °F 88% 30.05 in 10.0 mi Calm Calm - N/A   Overcast
7:30 AM 71.6 °F - 68.0 °F 88% 30.05 in 10.0 mi Calm Calm - N/A   Overcast
7:50 AM 71.6 °F - 68.0 °F 88% 30.05 in 10.0 mi Calm Calm - N/A   Overcast
8:10 AM 71.6 °F - 68.0 °F 88% 30.05 in 10.0 mi NNW 3.5 mph - N/A   Mostly Cloudy
8:30 AM 73.4 °F - 68.0 °F 83% 30.05 in 10.0 mi Calm Calm - N/A   Overcast
8:50 AM 75.2 °F - 68.0 °F 78% 30.05 in 10.0 mi NNE 3.5 mph - N/A   Overcast
9:10 AM 75.2 °F - 68.0 °F 78% 30.05 in 10.0 mi Calm Calm - N/A   Mostly Cloudy
9:30 AM 75.2 °F - 66.2 °F 73% 30.05 in 10.0 mi Calm Calm - N/A   Overcast
9:50 AM 77.0 °F - 68.0 °F 74% 30.05 in 10.0 mi Calm Calm - N/A   Mostly Cloudy
10:10 AM 77.0 °F - 68.0 °F 74% 30.05 in 10.0 mi NNE 4.6 mph - N/A   Partly Cloudy
10:30 AM 77.0 °F - 68.0 °F 74% 30.05 in 10.0 mi NW 5.8 mph - N/A   Mostly Cloudy
10:50 AM 77.0 °F - 68.0 °F 74% 30.05 in 10.0 mi NNE 5.8 mph - N/A   Overcast
11:10 AM 78.8 °F - 68.0 °F 69% 30.05 in 10.0 mi North 5.8 mph - N/A   Mostly Cloudy
11:30 AM 80.6 °F 83.2 °F 68.0 °F 65% 30.04 in 10.0 mi North 6.9 mph - N/A   Scattered Clouds
11:50 AM 80.6 °F 83.2 °F 68.0 °F 65% 30.04 in 10.0 mi NE 4.6 mph - N/A   Scattered Clouds
12:10 PM 80.6 °F 83.2 °F 68.0 °F 65% 30.04 in 10.0 mi North 5.8 mph - N/A   Mostly Cloudy
12:30 PM 80.6 °F 83.2 °F 68.0 °F 65% 30.04 in 10.0 mi NNW 6.9 mph - N/A   Mostly Cloudy
12:50 PM 80.6 °F 83.2 °F 68.0 °F 65% 30.03 in 10.0 mi North 5.8 mph - N/A   Mostly Cloudy
1:10 PM 80.6 °F 83.2 °F 68.0 °F 65% 30.03 in 10.0 mi NNE 6.9 mph - N/A   Mostly Cloudy
1:30 PM 80.6 °F 83.2 °F 68.0 °F 65% 30.02 in 10.0 mi North 5.8 mph - N/A   Mostly Cloudy
1:50 PM 80.6 °F 83.2 °F 68.0 °F 65% 30.02 in 10.0 mi NNE 6.9 mph - N/A   Mostly Cloudy
2:10 PM 78.8 °F - 68.0 °F 69% 30.01 in 10.0 mi NE 6.9 mph - N/A   Overcast
2:30 PM 78.8 °F - 68.0 °F 69% 30.01 in 10.0 mi NE 6.9 mph - N/A   Mostly Cloudy
2:50 PM 77.0 °F - 68.0 °F 74% 30.00 in 10.0 mi NNE 8.1 mph - N/A Rain Light Rain
3:10 PM 77.0 °F - 68.0 °F 74% 30.00 in 10.0 mi ENE 6.9 mph - N/A   Mostly Cloudy
3:30 PM 75.2 °F - 69.8 °F 83% 30.00 in 5.0 mi SE 4.6 mph - N/A Rain Light Rain
3:50 PM 75.2 °F - 71.6 °F 89% 29.99 in 10.0 mi SE 4.6 mph - N/A   Scattered Clouds
4:10 PM 75.2 °F - 71.6 °F 89% 30.00 in 1.8 mi ENE 13.8 mph 20.7 mph 0.02 in Rain Heavy Rain
4:30 PM 69.8 °F - 66.2 °F 88% 30.00 in 2.0 mi ENE 13.8 mph 20.7 mph 0.04 in Rain Light Rain
4:50 PM 71.6 °F - 68.0 °F 88% 30.00 in 2.5 mi NNW 3.5 mph - 0.06 in Rain Rain
5:10 PM 71.6 °F - 68.0 °F 88% 29.99 in 2.0 mi Calm Calm - 0.01 in Rain Light Rain
5:30 PM 73.4 °F - 69.8 °F 88% 29.99 in 10.0 mi NE 5.8 mph - 0.03 in   Mostly Cloudy
5:50 PM 73.4 °F - 69.8 °F 88% 29.99 in 10.0 mi ENE 4.6 mph - 0.04 in   Mostly Cloudy
6:10 PM 73.4 °F - 69.8 °F 88% 29.99 in 10.0 mi ENE 4.6 mph - N/A   Mostly Cloudy
6:30 PM 73.4 °F - 69.8 °F 88% 30.00 in 10.0 mi NE 5.8 mph - N/A   Mostly Cloudy
6:50 PM 73.4 °F - 69.8 °F 88% 29.99 in 10.0 mi ENE 4.6 mph - N/A   Partly Cloudy
7:10 PM 75.2 °F - 68.0 °F 78% 29.99 in 10.0 mi East 4.6 mph - N/A   Mostly Cloudy
7:30 PM 75.2 °F - 68.0 °F 78% 29.99 in 10.0 mi ENE 3.5 mph - N/A   Mostly Cloudy
7:50 PM 73.4 °F - 68.0 °F 83% 29.99 in 10.0 mi ENE 3.5 mph - N/A   Partly Cloudy
8:10 PM 71.6 °F - 68.0 °F 88% 30.00 in 10.0 mi North 3.5 mph - N/A   Clear
8:30 PM 71.6 °F - 68.0 °F 88% 30.00 in 10.0 mi ENE 3.5 mph - N/A   Partly Cloudy
8:50 PM 71.6 °F - 68.0 °F 88% 30.00 in 10.0 mi East 6.9 mph - N/A   Mostly Cloudy
9:10 PM 71.6 °F - 66.2 °F 83% 30.00 in 10.0 mi ESE 4.6 mph - N/A   Scattered Clouds
9:30 PM 71.6 °F - 66.2 °F 83% 30.01 in 10.0 mi East 4.6 mph - N/A   Clear
9:50 PM 69.8 °F - 66.2 °F 88% 30.02 in 10.0 mi SE 4.6 mph - N/A   Clear
10:10 PM 69.8 °F - 66.2 °F 88% 30.03 in 10.0 mi SE 3.5 mph - N/A   Clear
10:30 PM 68.0 °F - 66.2 °F 94% 30.03 in 10.0 mi Calm Calm - N/A   Clear
10:50 PM 68.0 °F - 66.2 °F 94% 30.03 in 10.0 mi East 4.6 mph - N/A   Clear
11:10 PM 68.0 °F - 66.2 °F 94% 30.03 in 10.0 mi Calm Calm - N/A   Clear
11:30 PM 68.0 °F - 66.2 °F 94% 30.03 in 10.0 mi SE 4.6 mph - N/A   Clear
11:50 PM 68.0 °F - 64.4 °F 88% 30.03 in 10.0 mi ESE 4.6 mph - N/A   Clear